Content
SEND FEEDBACK

Daily
Averages
Monthly
Summary
United States of America

HARTFORD, KENTUCKY


Home > North America > United States > Kentucky
Elevation: 54 feet     Latitude: 37 32N     Longitude: 086 54W

WEATHER
 
SELECT A DAY
Number of Records: 149,888;   Date Range: 1/1/95 - 7/26/14
 
SHARE

PRINT THIS DATA

[ ← Previous Day ]
WEATHER ALMANAC - FEBRUARY 5, 2013
[ Next Day → ]
[ °C ]   °F
Weather ElementAverageHighLow
Temperature40.6 °F54.9 °F (2:56 pm)32 °F (6:56 am)
Dewpoint35 °F39.9 °F (12:56 am)30 °F (7:56 am)
Humidity81.8 %100 % (12:56 am)55 % (2:56 pm)
Barometer29.98 in30.11 in (11:56 pm)29.92 in (12:56 am)
Wind Speed6.1 mph12.7 mph (3:56 pm)
Weather ElementAverage
Visibility8.1 mi
Wind DirectionWSW (232.4 °)

Weather ElementTotal
Precipitation---
Heating Degree Days21.6 (Base 65)
Averaged from 25 records on February 5, 2013
WEATHER CONDITIONS BREAKOUT
WIND DIRECTION BREAKOUT
WEATHER BY HOUR - FEBRUARY 5, 2013
[ °C ]   °F
Local TimeTemperatureDewpointHumidityBarometerVisibilityWind DirectionWind SpeedGust SpeedPrecipitationEventsConditions
12:56 AM39.9 °F39.9 °F100 %29.92 in6.0 miWest (280°)6.9 mphOvercast
1:27 AM39.2 °F39.2 °F100 %29.92 in3.0 miWNW (290°)5.8 mphOvercast
1:56 AM39.9 °F37.9 °F93 %29.93 in9.0 miNNW (330°)5.8 mphOvercast
2:28 AM37.4 °F35.6 °F93 %29.92 in10.0 miNNW (340°)6.9 mphOvercast
2:56 AM36.9 °F34.9 °F93 %29.94 in10.0 miNW (320°)11.5 mphOvercast
3:56 AM36.0 °F32.9 °F89 %29.95 in10.0 miNNW (340°)6.9 mphOvercast
4:44 AM33.8 °F32.0 °F93 %29.94 in9.0 miNW (320°)3.5 mphScattered Clouds
4:56 AM34.0 °F32.0 °F92 %29.95 in8.0 miNW (320°)3.5 mphClear
5:24 AM33.8 °F32.0 °F93 %29.95 in7.0 miNW (320°)5.8 mphMostly Cloudy
6:56 AM32.0 °F31.1 °F96 %29.99 in5.0 miCalmOvercast
7:56 AM32.0 °F30.0 °F92 %30.01 in5.0 miCalmMostly Cloudy
8:56 AM34.0 °F31.1 °F89 %30.03 in5.0 miVariable4.6 mphMostly Cloudy
10:56 AM41.0 °F36.0 °F82 %30.01 in5.0 miSouth (190°)11.5 mphHaze
11:56 AM41.9 °F36.9 °F82 %29.98 in5.0 miSouth (190°)11.5 mphHaze
12:56 PM46.9 °F38.8 °F73 %29.95 in6.0 miSW (220°)9.2 mphHaze
1:56 PM50.9 °F37.9 °F61 %29.94 in10.0 miWSW (250°)10.4 mphClear
2:56 PM54.9 °F38.8 °F55 %29.92 in10.0 miWSW (240°)10.4 mphClear
3:56 PM54.9 °F38.8 °F55 %29.92 in10.0 miWSW (250°)12.7 mphClear
5:56 PM45.9 °F34.9 °F66 %29.96 in10.0 miWest (270°)5.8 mphClear
6:56 PM43.0 °F34.9 °F73 %29.98 in10.0 miCalmClear
7:56 PM43.0 °F34.0 °F71 %30.01 in10.0 miCalmClear
8:56 PM41.9 °F34.0 °F73 %30.04 in10.0 miNNW (330°)4.6 mphClear
9:56 PM39.9 °F34.0 °F79 %30.06 in10.0 miNW (320°)3.5 mphClear
10:56 PM41.0 °F34.0 °F76 %30.09 in10.0 miNNW (340°)8.1 mphClear
11:56 PM39.9 °F32.9 °F76 %30.11 in10.0 miNorth (350°)4.6 mphClear
Hourly data recorded from KOWB, located miles away from Hartford, Kentucky







STORIES FROM OUR PARTNERS